Starlink 34425

operational
NORAD ID: 64350 Int'l Des: 2025-126 Owner: SPXS Country: US Constellation: starlink
LEOCIRCULAR

Starlink 34425について

説明を読み込み中...

リアルタイム位置

3D地球を読み込み中...

次回通過

高度履歴

Altitude vs Time

uPlot chart will show altitude changes over time

軌道要素

1 64350U 25126G 26063.16987071 .00009528 00000-0 80483-3 0 9990
2 64350 70.0029 48.4317 0002816 270.6435 89.4401 14.98350263 39851
Epoch: Mar 4, 2026 • Age: 21 hours

現在のステータス

高度 582.8 km
速度 7.57 km/s
衛星直下点 -33.24°S, 121.87°E
打ち上げ日 Jun 13, 2025
運用期間 0.7 years
タイプ internet

技術仕様

分類 Payload
質量 575.00 kg
乾燥質量 530.00 kg
総質量 575.00 kg
長さ 0.30 m
直径 4.10 m
スパン 29.00 m
形状 Box + pan
製造者 SPXS
バスタイプ Starlink V2MO
フェーズステータス In Orbit
所有者/国 SPXS/US

大規模コンステレーション

Loading constellations...